Weather History for Los Alamos, NM

Change the Weather History Date:

Monday, March 11, 2013

  Actual Average Record
Temperature  
Mean Temperature 40 °F -  
Max Temperature 52 °F 48 °F 73 °F (1989)
Min Temperature 28 °F 26 °F -3 °F (1948)
Degree Days  
Heating Degree Days 25    
Moisture  
Dew Point 19 °F    
Average Humidity 45    
Maximum Humidity 69    
Minimum Humidity 25    
Precipitation  
Precipitation 0.00 in - - ()
Sea Level Pressure  
Sea Level Pressure 30.13 in    
Wind  
Wind Speed 3 mph (South)    
Max Wind Speed 14 mph    
Max Gust Speed -    
Visibility 10 miles    
Events      
Averages and records for this station are not official NWS values.
T = Trace of Precipitation, MM = Missing Value Source: NWS Daily Summary

Daily Weather History Graph

Daily Weather History Graph

Search for Another Location

Airport:

Trip Planner

Search our weather history database for the weather conditions in past years. The results will help you decide how hot, cold, wet, or windy it might be!

Date:

Astronomy

Mar. 11, 2013 Rise Set
Actual Time 7:21 AM MDT 7:09 PM MDT
Civil Twilight 6:55 AM MDT 7:34 PM MDT
Nautical Twilight 6:25 AM MDT 8:04 PM MDT
Astronomical Twilight 5:56 AM MDT 8:34 PM MDT
Moon 6:57 AM MDT (3/11) 7:22 PM MDT (3/11)
Length of Visible Light 12h 39m
Length of Day
11h 48m
Waning Crescent, 0% of the Moon is Illuminated
Mar 11
Waning Crescent
Mar 11
New
Mar 19
First Quarter
Mar 27
Full
Apr 2
Last Quarter

Hourly Weather History & Observations

Time (MDT) Temp. Windchill Dew Point Humidity Pressure Visibility Wind Dir Wind Speed Gust Speed Precip Events Conditions
12:15 AM 35.2 °F 29.5 °F 18.7 °F 51% 30.17 in 10.0 mi West 6.9 mph - N/A   Clear
12:35 AM 34.9 °F 29.9 °F 18.9 °F 52% 30.18 in 10.0 mi West 5.8 mph - N/A   Clear
12:55 AM 37.0 °F - 16.9 °F 44% 30.18 in 10.0 mi Calm Calm - N/A   Clear
1:15 AM 36.3 °F - 17.1 °F 46% 30.18 in 10.0 mi Calm Calm - N/A   Clear
1:35 AM 34.5 °F - 18.1 °F 51% 30.18 in 10.0 mi Calm Calm - N/A   Clear
1:55 AM 32.5 °F - 18.9 °F 57% 30.18 in 10.0 mi Calm Calm - N/A   Clear
2:15 AM 33.1 °F - 18.5 °F 55% 30.18 in 10.0 mi Calm Calm - N/A   Clear
2:55 AM 32.7 °F 29.6 °F 18.1 °F 55% 30.17 in 10.0 mi SSW 3.5 mph - N/A   Clear
3:15 AM 32.9 °F - 18.1 °F 55% 30.17 in 10.0 mi Calm Calm - N/A   Clear
3:35 AM 32.4 °F - 18.3 °F 56% 30.16 in 10.0 mi Calm Calm - N/A   Clear
3:55 AM 32.2 °F - 18.3 °F 57% 30.15 in 10.0 mi Calm Calm - N/A   Clear
4:15 AM 32.0 °F - 18.0 °F 56% 30.15 in 10.0 mi Calm Calm - N/A   Clear
4:35 AM 32.2 °F - 18.1 °F 56% 30.15 in 10.0 mi Calm Calm - N/A   Clear
4:55 AM 32.9 °F - 18.3 °F 55% 30.14 in 10.0 mi Calm Calm - N/A   Clear
5:15 AM 32.0 °F 28.7 °F 18.3 °F 57% 30.14 in 10.0 mi NNE 3.5 mph - N/A   Clear
5:35 AM 31.8 °F - 18.5 °F 58% 30.13 in 10.0 mi Calm Calm - N/A   Clear
5:55 AM 31.6 °F - 18.5 °F 58% 30.13 in 10.0 mi Calm Calm - N/A   Clear
6:15 AM 30.0 °F - 18.5 °F 62% 30.13 in 10.0 mi Calm Calm - N/A   Clear
6:35 AM 29.3 °F - 19.2 °F 66% 30.13 in 10.0 mi Calm Calm - N/A   Clear
6:55 AM 29.1 °F - 19.2 °F 67% 30.13 in 10.0 mi Calm Calm - N/A   Clear
7:15 AM 28.8 °F - 18.9 °F 67% 30.13 in 10.0 mi Calm Calm - N/A   Clear
7:35 AM 28.4 °F - 19.2 °F 69% 30.13 in 10.0 mi Calm Calm - N/A   Clear
7:55 AM 29.5 °F 25.9 °F 20.1 °F 68% 30.14 in 10.0 mi NE 3.5 mph - N/A   Clear
8:15 AM 30.0 °F 26.5 °F 20.1 °F 67% 30.14 in 10.0 mi NNE 3.5 mph - N/A   Clear
8:35 AM 30.2 °F - 20.3 °F 67% 30.15 in 10.0 mi Calm Calm - N/A   Clear
8:55 AM 31.3 °F - 20.8 °F 65% 30.16 in 10.0 mi Calm Calm - N/A   Clear
9:15 AM 32.4 °F - 21.7 °F 65% 30.16 in 10.0 mi Calm Calm - N/A   Clear
9:35 AM 32.7 °F 29.6 °F 22.1 °F 65% 30.17 in 10.0 mi ENE 3.5 mph - N/A   Clear
9:55 AM 34.3 °F - 22.3 °F 61% 30.17 in 10.0 mi Calm Calm - N/A   Clear
10:15 AM 35.6 °F - 21.6 °F 57% 30.17 in 10.0 mi Calm Calm - N/A   Clear
10:35 AM 37.9 °F 35.5 °F 22.3 °F 53% 30.17 in 10.0 mi SE 3.5 mph - N/A   Clear
10:55 AM 39.4 °F 36.1 °F 22.5 °F 51% 30.17 in 10.0 mi SE 4.6 mph - N/A   Clear
11:15 AM 40.5 °F 37.3 °F 22.6 °F 49% 30.17 in 10.0 mi East 4.6 mph - N/A   Clear
11:35 AM 41.4 °F 39.4 °F 22.8 °F 48% 30.17 in 10.0 mi East 3.5 mph - N/A   Clear
11:55 AM 41.5 °F - 23.0 °F 48% 30.15 in 10.0 mi Calm Calm - N/A   Clear
12:15 PM 43.2 °F 39.7 °F 22.3 °F 44% 30.15 in 10.0 mi East 5.8 mph - N/A   Clear
12:35 PM 44.2 °F 39.7 °F 21.4 °F 40% 30.15 in 10.0 mi SSE 8.1 mph - N/A   Clear
12:55 PM 44.4 °F 42.0 °F 19.2 °F 37% 30.14 in 10.0 mi ESE 4.6 mph - N/A   Clear
1:15 PM 45.7 °F 43.4 °F 17.8 °F 33% 30.13 in 10.0 mi SE 4.6 mph - N/A   Clear
1:35 PM 46.9 °F - 17.8 °F 31% 30.12 in 10.0 mi SE 8.1 mph - N/A   Clear
1:55 PM 48.2 °F - 18.7 °F 31% 30.11 in 10.0 mi SSE 8.1 mph - N/A   Clear
2:15 PM 49.1 °F - 19.0 °F 30% 30.09 in 10.0 mi SE 11.5 mph - N/A   Clear
2:35 PM 48.7 °F - 19.2 °F 31% 30.09 in 10.0 mi SE 8.1 mph - N/A   Clear
2:55 PM 49.6 °F - 19.6 °F 31% 30.09 in 10.0 mi East 8.1 mph - N/A   Clear
3:15 PM 51.1 °F - 19.6 °F 29% 30.07 in 10.0 mi SSE 8.1 mph - N/A   Clear
3:35 PM 51.1 °F - 19.4 °F 29% 30.07 in 10.0 mi SSE 5.8 mph - N/A   Clear
3:55 PM 52.0 °F - 19.4 °F 28% 30.07 in 10.0 mi NE 3.5 mph - N/A   Clear
4:15 PM 51.6 °F - 19.0 °F 28% 30.06 in 10.0 mi Calm Calm - N/A   Clear
4:35 PM 51.8 °F - 18.7 °F 27% 30.06 in 10.0 mi Calm Calm - N/A   Clear
5:15 PM 52.5 °F - 18.9 °F 27% 30.05 in 10.0 mi ENE 3.5 mph - N/A   Clear
5:35 PM 52.7 °F - 18.7 °F 26% 30.05 in 10.0 mi East 3.5 mph - N/A   Clear
5:55 PM 52.5 °F - 18.5 °F 26% 30.05 in 10.0 mi Calm Calm - N/A   Clear
6:15 PM 52.0 °F - 18.5 °F 27% 30.06 in 10.0 mi NNE 4.6 mph - N/A   Clear
6:35 PM 51.4 °F - 18.1 °F 27% 30.06 in 10.0 mi Calm Calm - N/A   Clear
6:55 PM 50.7 °F - 18.1 °F 28% 30.06 in 10.0 mi Calm Calm - N/A   Clear
7:15 PM 49.3 °F - 14.9 °F 25% 30.07 in 10.0 mi WSW 6.9 mph - N/A   Clear
7:35 PM 48.7 °F - 15.3 °F 26% 30.07 in 10.0 mi West 9.2 mph - N/A   Clear
7:55 PM 47.8 °F - 16.7 °F 29% 30.09 in 10.0 mi West 10.4 mph - N/A   Clear
8:15 PM 47.3 °F - 16.7 °F 30% 30.09 in 10.0 mi West 10.4 mph - N/A   Clear
8:35 PM 46.4 °F 41.1 °F 17.1 °F 31% 30.10 in 10.0 mi West 11.5 mph - N/A   Clear
8:55 PM 45.5 °F 39.6 °F 17.2 °F 32% 30.10 in 10.0 mi West 12.7 mph - N/A   Clear
9:15 PM 45.0 °F 39.7 °F 16.7 °F 32% 30.12 in 10.0 mi West 10.4 mph - N/A   Clear
9:35 PM 44.6 °F 39.7 °F 17.4 °F 34% 30.12 in 10.0 mi WSW 9.2 mph - N/A   Clear
9:55 PM 44.4 °F 39.5 °F 18.0 °F 35% 30.12 in 10.0 mi West 9.2 mph - N/A   Clear
10:15 PM 43.9 °F 37.2 °F 19.2 °F 37% 30.13 in 10.0 mi West 13.8 mph - N/A   Clear
10:35 PM 43.9 °F 39.3 °F 20.1 °F 39% 30.13 in 10.0 mi West 8.1 mph - N/A   Clear
10:55 PM 44.4 °F 40.5 °F 18.7 °F 36% 30.14 in 10.0 mi West 6.9 mph - N/A   Clear
11:15 PM 43.9 °F - 18.5 °F 36% 30.14 in 10.0 mi Calm Calm - N/A   Clear
11:35 PM 43.9 °F - 18.0 °F 35% 30.14 in 10.0 mi Calm Calm - N/A   Clear
11:55 PM 43.9 °F 40.5 °F 19.8 °F 38% 30.14 in 10.0 mi WNW 5.8 mph - N/A   Clear